Regional Weather Roundup
Issued by NWS

Home | Current Version | Previous Version | Graphics & Text | Print | Product List | Glossary On
Versions: 1 2 3 4 5 6 7 8 9 10 11 12 13 14 15 16 17 18 19 20 21 22 23 24 25 26 27 28 29 30 31 32 33 34 35 36 37 38 39 40 41 42 43 44 45 46 47 48 49 50
000
ASUS43 KLMK 211202
RWRKY
KENTUCKY REGIONAL WEATHER ROUNDUP
NATIONAL WEATHER SERVICE LOUISVILLE KY
800 AM EDT SAT OCT 21 2017

NOTE "FAIR" INDICATES FEW OR NO CLOUDS BELOW 12,000 FEET
WITH NO SIGNIFICANT WEATHER AND/OR OBSTRUCTIONS TO VISIBILITY.

KYZ001>023-026-027-061>063-070>075-211300-
WESTERN AND SOUTH CENTRAL KENTUCKY

CITY           SKY/WX    TMP DP  RH WIND       PRES   REMARKS
PADUCAH        CLOUDY    60  47  61 S6        30.12S
HENDERSON      CLOUDY    55  48  77 SE6       30.16S
OWENSBORO      CLOUDY    54  49  83 SE6       30.18S
HOPKINSVILLE   NOT AVBL
BOWLING GREEN  CLOUDY    48  48 100 CALM      30.22R
GLASGOW        PTCLDY    48  48 100 CALM      30.22S
$$

KYZ024-025-028>034-038-045-046-053-211300-
NORTH CENTRAL KENTUCKY

CITY           SKY/WX    TMP DP  RH WIND       PRES   REMARKS
LOUISVILLE/SDF CLOUDY    54  50  86 SE7       30.21R
LOUISVILLE/LOU PTCLDY    51  51 100 CALM      30.22R
FORT KNOX      CLOUDY    49  48  94 E3        30.20R
$$

KYZ035>037-039>044-047>052-055>060-089>105-211300-
NORTHEAST KENTUCKY

CITY           SKY/WX    TMP DP  RH WIND       PRES   REMARKS
LEXINGTON      PTCLDY    52  48  86 S6        30.24R
COVINGTON      MOCLDY    54  52  93 S3        30.22R
FRANKFORT      CLOUDY    47  43  86 CALM      30.22S
$$

KYZ054-064>069-076>088-106>120-211300-
SOUTHEAST KENTUCKY

CITY           SKY/WX    TMP DP  RH WIND       PRES   REMARKS
JACKSON        CLOUDY    53  49  86 CALM      30.26R
LONDON         PTCLDY    46  44  93 CALM      30.26R
SOMERSET       NOT AVBL
MIDDLESBORO    FOG       44  44 100 CALM      30.31R VSB 1/4
MONTICELLO     MOSUNNY   45  44  97 VRB7      30.28R
$$





USA.gov is the U.S. government's official web portal to all federal, state and local government web resources and services.